Location: Amsterdam
(30.7274°N, 84.4357°W)
Time: 22:03:24
(UTC+00:00)

ARIANE 6 FM1 Upper Stage - Visible Passes

Search period start: 17 January 2026 00:00
Search period end: 27 January 2026 00:00
Orbit: 522 x 610 km, 62.0° (Epoch: 17 January)

Date Brightness Start Highest point End Pass type
(mag) Time Alt. Az. Time Alt. Az. Time Alt. Az.
17 Jan 5.5 01:32:10 10° SSW 01:32:36 13° SW 01:32:36 13° SW visible
17 Jan 5.1 10:04:12 19° ENE 10:04:12 19° ENE 10:06:15 10° ESE visible
17 Jan 3.8 11:40:15 18° WNW 11:42:05 25° WSW 11:45:26 10° S visible
17 Jan 4.8 23:56:50 10° SE 23:57:43 11° ESE 23:57:43 11° ESE visible
18 Jan 5.1 01:32:31 10° SW 01:33:48 19° SW 01:33:48 19° SW visible
18 Jan 4.9 10:05:14 22° E 10:05:14 22° E 10:07:04 10° ESE visible
18 Jan 4.3 11:41:18 15° W 11:42:10 16° WSW 11:44:36 10° SSW visible
18 Jan 4.2 23:55:09 10° SSE 23:57:58 18° ESE 23:58:53 17° E visible
19 Jan 5.0 01:33:07 10° WSW 01:34:58 21° W 01:34:58 21° W visible
19 Jan 5.0 10:06:20 19° SE 10:06:20 19° SE 10:07:36 10° SE visible
19 Jan 3.6 23:54:28 10° S 23:58:04 28° ESE 00:00:00 19° ENE visible
20 Jan 5.2 01:33:59 10° W 01:36:05 18° WNW 01:36:05 18° WNW visible
20 Jan 5.4 10:07:30 13° SSE 10:07:30 13° SSE 10:07:54 10° SSE visible
20 Jan 2.9 23:54:11 10° S 23:58:10 46° ESE 00:01:03 17° NE visible
21 Jan 5.4 01:35:21 10° WNW 01:37:07 13° NW 01:37:07 13° NW visible
21 Jan 2.5 23:54:09 10° SSW 23:58:18 79° ESE 00:02:01 12° NE visible
22 Jan 3.0 23:54:22 10° SW 23:58:28 63° WNW 00:02:28 10° NNE visible
23 Jan 3.9 23:54:47 10° SW 23:58:39 38° NW 00:02:27 10° NNE visible
24 Jan 4.7 23:55:28 10° WSW 23:58:53 25° NW 00:02:16 10° N visible
25 Jan 5.2 23:56:30 10° W 23:59:10 17° NW 00:01:49 10° N visible
